Theta_e
340 340 342 345 346 346 347 346 347 351 351 352 352 352 352 351 350 350 350 350 350 350 350 350 350 350 351 350 350 350 350 350 349 349 348 347 347 346 345 344 343 343 343 342 341 342 344 346 346 346 345 346 345 345 345 344 345 346 345 345 346 346 347 347 346 346 346 347 349 349 348 348 348 348 348 347 347 345 344 343 343 342 343 345 348
338 339 341 345 347 347 346 346 349 350 351 352 352 352 351 350 350 350 350 350 350 350 350 350 350 350 350 350 350 349 349 350 350 349 348 348 347 345 344 344 343 343 343 342 341 341 342 344 345 345 345 344 343 344 343 342 343 343 344 344 345 345 346 346 346 345 345 345 345 345 345 347 347 346 347 346 346 345 343 342 341 338 339 345 346
341 341 343 344 345 347 347 348 347 349 350 352 352 351 350 350 350 350 350 350 350 350 350 350 349 349 349 349 350 350 349 349 348 349 349 348 346 344 344 343 342 342 342 341 340 340 341 342 342 343 343 342 342 342 342 342 342 343 343 344 345 345 346 346 346 345 345 344 343 343 342 343 344 345 345 345 345 344 341 340 339 339 335 343 344
341 342 344 345 346 347 345 347 348 349 351 351 351 351 351 350 350 350 350 350 350 350 348 348 348 348 349 349 349 349 349 349 348 348 347 347 346 344 343 343 342 341 340 341 339 338 340 340 341 341 340 340 340 341 342 342 342 343 343 344 344 346 346 345 345 344 344 343 342 340 340 338 340 343 345 345 342 341 338 337 338 339 340 341 342
342 343 344 345 346 345 346 349 349 349 351 351 351 351 350 350 350 350 350 350 350 349 349 348 348 348 348 348 348 348 349 349 348 348 347 346 346 345 344 343 342 340 339 340 338 337 339 339 339 339 339 339 340 340 341 341 342 343 343 344 344 345 345 345 343 343 342 341 340 339 336 337 338 342 343 342 340 338 337 338 338 339 338 338 341
342 344 345 346 346 347 347 349 349 349 350 351 351 350 350 350 350 350 349 350 349 349 348 348 348 347 347 347 347 347 348 348 348 347 347 346 346 345 344 343 341 340 339 339 337 336 338 338 339 339 338 338 338 340 341 342 343 343 343 344 344 345 344 343 342 341 339 339 338 335 335 336 338 340 343 342 339 337 337 338 338 338 338 338 339
344 346 347 346 344 344 347 348 349 349 351 351 350 350 350 349 349 349 349 349 348 348 348 347 347 347 347 347 347 347 347 348 347 347 346 346 345 345 344 343 341 339 339 338 335 334 337 338 338 338 338 337 338 339 341 342 342 342 343 343 344 344 342 341 340 339 337 335 333 334 334 335 336 337 341 340 338 337 337 339 338 338 338 337 337
346 348 348 346 344 344 344 347 348 349 351 351 350 349 349 349 349 349 349 348 348 348 347 347 347 347 347 347 347 347 347 347 347 347 346 346 345 344 343 341 340 339 338 338 334 333 336 337 337 336 337 337 337 338 339 340 342 342 342 344 343 343 342 341 339 337 336 332 331 332 333 335 336 336 340 339 338 337 337 337 337 337 337 337 335
346 348 347 345 343 342 346 346 349 349 350 350 350 349 349 349 348 348 348 348 348 348 348 347 347 348 347 346 346 346 346 346 346 346 345 344 344 343 341 340 339 339 338 338 334 332 334 336 336 336 336 337 336 336 338 340 341 342 342 342 342 340 338 336 335 333 331 329 329 331 331 332 335 335 338 339 337 337 336 334 334 335 335 335 334
345 347 346 343 342 341 344 347 349 350 350 350 350 349 349 348 348 348 348 348 348 348 347 347 348 347 347 346 346 346 346 346 345 344 343 343 342 341 341 340 339 338 338 337 334 332 333 335 336 336 336 336 336 337 337 339 341 342 342 341 339 338 336 334 332 331 327 327 327 328 334 336 331 332 335 337 337 336 333 333 333 333 333 333 334
344 346 345 343 341 341 346 349 349 349 349 350 349 349 349 348 348 348 348 348 348 348 347 347 347 347 346 346 346 346 346 345 344 343 343 343 342 341 341 339 338 338 337 337 335 331 333 334 335 336 335 335 337 337 338 339 341 341 340 339 338 337 335 332 329 326 326 326 327 327 330 336 332 333 336 336 336 335 333 333 333 333 332 333 334
344 345 345 342 343 340 346 347 348 350 349 349 348 349 348 348 348 347 348 348 347 347 347 347 347 347 346 346 346 346 345 344 343 343 342 342 341 340 339 339 338 337 336 336 333 330 331 333 334 335 334 335 336 336 337 339 340 339 339 338 336 334 332 330 326 325 325 325 326 328 327 327 330 333 337 336 335 334 332 333 332 333 332 332 334
344 345 346 344 340 340 344 346 346 349 349 349 349 348 348 348 347 347 347 347 347 346 347 347 346 346 346 347 346 346 344 344 343 342 342 342 340 339 339 338 337 337 336 335 334 329 329 331 333 334 335 335 334 335 336 338 339 338 337 336 334 332 330 327 323 324 324 325 325 326 326 327 329 335 335 335 335 334 333 333 333 331 333 332 332
344 345 345 345 344 343 340 341 343 347 349 348 348 348 348 347 347 347 347 347 346 346 347 346 346 346 346 346 345 345 344 344 343 342 342 342 340 339 338 337 337 336 334 333 331 328 328 329 332 333 333 333 333 334 335 336 336 335 334 333 331 329 326 324 325 322 323 323 325 325 325 328 329 334 334 334 334 333 332 332 332 331 331 332 331
342 342 344 344 344 344 340 339 342 343 345 347 347 347 348 347 347 347 347 346 346 346 346 346 346 346 346 346 345 344 344 343 343 342 342 341 340 339 338 337 337 335 334 331 328 326 326 327 330 332 332 332 332 332 333 334 334 332 331 329 328 325 323 318 319 319 320 322 322 323 323 325 333 334 334 334 334 332 332 332 332 331 330 331 330
335 338 339 340 342 343 343 341 338 338 341 343 344 345 347 347 347 347 347 346 346 346 346 346 346 346 346 345 345 344 344 343 342 342 341 341 340 339 338 337 336 335 334 330 326 324 324 326 329 329 330 330 330 330 331 331 332 330 328 326 323 321 320 318 316 316 318 319 321 322 322 324 333 333 333 333 333 333 332 331 332 330 330 330 330
324 328 330 332 336 339 341 342 338 334 335 337 339 340 343 346 346 347 347 346 347 347 346 346 346 346 345 345 344 344 343 342 342 342 341 341 340 339 337 337 336 335 334 331 327 324 325 326 327 327 327 327 327 328 328 329 328 327 325 321 319 317 315 313 310 312 315 317 318 320 323 326 332 332 333 333 332 332 332 331 331 331 329 330 330
319 320 320 322 325 329 333 340 339 340 340 335 332 337 339 341 340 341 344 345 345 346 346 345 344 345 344 343 342 342 342 343 342 342 341 340 339 338 337 336 335 334 332 331 328 326 325 326 326 325 324 323 324 324 325 326 326 324 322 319 316 313 310 307 302 306 311 316 314 318 321 330 333 332 332 332 332 332 331 331 331 330 330 329 329
317 318 318 319 321 323 325 332 335 340 339 339 338 336 333 337 338 340 341 342 344 343 344 342 341 343 342 339 338 337 335 336 338 339 339 337 335 334 337 335 335 334 332 330 329 327 324 323 323 323 322 322 323 322 323 324 324 323 321 317 314 311 307 301 298 300 305 310 313 315 320 329 332 333 333 331 331 331 331 330 329 329 329 329 329
316 316 317 317 318 321 323 325 326 333 339 339 339 338 332 332 334 336 337 340 340 341 339 336 335 335 335 334 330 329 329 331 328 332 333 337 334 331 334 335 335 334 332 331 329 327 325 323 322 322 321 321 321 322 321 321 321 320 318 315 311 307 299 297 297 299 301 307 312 314 324 328 331 333 334 333 335 336 335 334 334 334 330 330 329
314 315 315 316 316 318 320 322 323 323 331 338 339 339 335 328 329 329 331 334 336 336 335 328 325 325 326 322 326 334 334 332 332 332 326 330 325 327 332 335 335 334 332 332 331 328 325 324 324 322 321 320 317 317 318 319 318 317 314 311 308 301 299 298 298 301 301 305 310 314 324 327 328 329 330 330 330 331 331 333 335 335 334 331 332
309 311 314 314 315 316 317 319 320 322 323 331 338 339 336 332 337 336 333 332 329 327 329 332 330 329 321 327 333 332 334 334 333 331 330 328 327 325 330 335 336 334 334 332 332 331 330 329 327 323 322 319 313 304 304 310 313 312 310 307 301 300 300 299 298 300 303 305 311 319 323 325 327 330 330 329 330 329 329 331 331 333 333 334 334
307 308 311 313 313 314 316 317 318 320 321 324 332 338 337 337 337 336 335 328 330 329 333 331 331 330 330 333 332 333 334 333 332 330 329 324 328 325 330 332 333 332 334 334 333 332 331 328 326 323 320 316 307 305 303 301 302 306 303 300 299 300 300 300 299 299 302 307 311 323 324 325 326 327 327 326 327 327 327 328 328 328 329 330 330
304 303 305 310 312 313 314 315 316 318 319 320 325 337 337 337 336 335 334 334 333 334 334 333 332 333 333 334 333 333 333 333 328 324 326 327 326 324 327 327 328 327 327 327 328 329 328 326 323 320 315 310 307 306 305 303 303 301 300 299 299 299 300 300 299 299 301 308 313 323 324 325 326 326 328 327 326 325 326 325 325 326 326 327 327
302 302 303 306 307 310 312 314 317 318 319 319 323 332 337 337 336 335 335 335 334 335 335 335 333 332 332 332 332 331 332 331 329 328 330 328 329 329 328 326 324 323 322 321 320 322 319 315 313 312 309 309 308 307 307 306 305 304 302 301 302 302 301 301 301 301 302 306 314 320 323 324 326 328 328 328 328 327 327 327 327 327 326 326 327
301 303 303 304 306 307 309 313 316 318 319 319 321 328 335 336 335 336 336 334 333 331 331 331 332 332 332 331 330 330 330 330 328 328 329 329 328 328 327 327 324 322 323 322 322 323 319 317 315 311 309 308 307 307 306 307 307 306 305 304 304 303 302 301 301 302 303 307 313 318 321 323 325 327 327 327 327 327 327 326 326 326 326 326 326
301 302 302 303 306 306 308 312 316 318 318 319 327 330 332 334 334 333 331 328 328 327 327 328 329 331 331 330 330 330 330 330 328 326 326 328 328 328 326 324 324 323 323 324 323 322 320 319 316 314 312 311 309 308 308 307 307 308 307 306 305 303 302 301 300 301 301 304 309 316 319 320 321 322 322 323 323 324 326 326 326 327 326 326 325
303 303 303 305 308 310 309 309 314 317 318 328 328 328 328 327 326 324 326 324 325 325 325 327 328 329 330 330 330 330 329 327 327 326 324 324 324 325 325 323 322 322 323 322 321 320 319 319 318 316 315 312 310 309 309 309 308 308 307 306 304 302 301 300 300 299 300 301 304 311 315 316 316 317 320 321 321 321 322 323 325 326 326 326 325
304 303 305 308 309 309 307 308 314 316 327 328 326 325 324 324 324 324 323 321 323 323 324 324 325 327 328 328 328 327 325 324 323 323 323 322 322 322 321 320 320 319 320 319 319 318 318 318 316 315 315 312 312 312 309 310 310 309 308 305 303 301 300 300 299 298 298 298 299 304 310 311 313 315 317 318 319 319 319 321 322 323 324 325 324
305 305 306 309 311 309 308 311 316 325 325 325 323 322 321 320 319 320 319 318 320 321 321 320 322 324 324 325 325 325 323 321 321 321 321 319 319 319 319 319 318 318 318 317 316 317 316 316 315 314 313 313 312 313 311 310 310 310 309 305 303 302 301 300 299 299 298 298 297 297 305 306 308 311 313 314 316 317 317 318 320 321 322 323 323
307 307 308 310 311 308 310 316 316 320 321 320 319 317 317 315 315 316 314 315 316 317 317 318 318 320 322 322 322 321 320 319 319 319 318 318 318 318 317 317 317 317 316 315 314 313 313 313 312 311 311 310 310 311 311 310 310 310 308 305 303 302 301 300 299 298 298 297 296 295 296 300 303 305 308 311 312 313 314 315 318 319 320 321 322
305 307 308 310 309 309 311 314 315 316 315 315 314 313 313 312 311 311 312 312 312 312 314 315 315 317 318 319 319 319 318 318 317 316 316 315 314 314 314 313 312 312 311 309 307 306 306 305 305 306 306 307 307 308 308 309 308 307 306 304 302 300 298 297 296 296 296 295 295 294 294 294 297 300 302 306 309 310 312 312 314 316 317 318 320
305 307 308 308 309 309 310 311 314 313 313 312 312 311 311 309 309 309 310 311 311 312 312 312 313 313 313 313 314 315 315 315 314 314 313 312 312 311 310 309 308 307 305 304 303 303 302 302 301 302 302 303 304 305 307 307 306 305 304 303 301 299 297 295 294 293 293 293 292 292 292 291 290 294 296 299 303 307 309 309 310 313 314 315 317
305 306 307 307 308 309 310 310 311 311 310 310 310 309 308 308 307 307 306 307 309 309 308 309 310 310 311 311 312 312 312 313 313 312 311 310 309 308 307 305 304 302 301 300 299 299 299 299 299 300 300 300 299 301 304 303 304 304 303 302 300 298 296 293 292 290 290 289 289 290 290 290 289 288 288 293 297 302 305 306 307 310 311 312 314
304 305 306 306 306 307 309 308 309 309 309 308 308 307 307 307 305 305 306 306 304 305 305 305 306 307 308 307 308 308 308 309 310 309 308 308 306 305 304 303 301 298 297 296 296 295 295 294 296 297 296 297 298 299 300 299 300 300 300 299 298 296 294 292 290 289 287 287 287 287 288 288 288 287 287 286 290 295 300 303 304 306 309 310 311
303 303 305 306 305 306 307 307 307 307 307 307 306 305 304 304 303 302 301 302 302 300 300 301 302 303 304 303 304 304 305 305 305 306 304 303 303 301 300 299 298 296 295 294 293 292 291 291 290 293 296 295 297 295 296 295 295 295 296 296 296 295 293 291 289 287 286 286 286 285 286 286 287 287 288 285 285 289 296 299 301 302 304 307 309
303 302 304 304 304 304 305 305 305 304 304 303 303 303 302 301 300 299 299 299 298 297 298 299 300 300 300 300 300 300 301 301 301 302 301 300 299 298 298 297 296 294 292 291 290 290 290 289 288 289 293 294 294 293 292 291 291 290 291 290 290 291 290 289 288 286 287 285 284 284 285 285 286 288 285 284 284 284 289 295 296 297 299 303 306
304 303 304 304 303 304 303 304 304 303 302 301 300 300 299 298 298 297 296 295 295 295 295 296 296 296 296 296 297 297 297 297 298 298 298 297 297 296 296 295 294 292 290 289 288 287 287 289 287 287 289 293 293 291 290 289 290 289 288 287 287 287 287 287 287 287 284 284 284 283 283 284 284 284 284 283 283 284 284 288 291 292 294 300 303
302 302 303 303 302 302 303 302 301 301 300 299 299 297 296 296 295 295 294 293 293 293 294 293 294 293 294 294 294 294 295 295 296 296 295 294 294 294 293 293 292 290 289 288 287 287 287 287 288 288 288 289 291 290 289 289 288 287 286 286 286 286 286 286 285 284 283 283 285 285 284 283 283 283 283 282 283 283 283 283 283 284 285 295 299
301 302 301 302 302 302 302 302 301 300 299 298 297 296 296 295 294 294 293 292 292 292 292 292 292 292 292 292 292 293 293 293 293 293 292 291 291 291 290 289 289 288 288 286 286 285 286 287 288 289 289 288 287 288 288 288 287 287 287 286 285 284 284 284 284 283 283 282 282 282 282 282 282 282 282 282 282 282 282 282 284 283 284 288 294
300 302 301 301 301 300 300 300 300 299 298 297 296 296 295 294 293 292 291 291 290 290 290 290 290 291 291 291 291 291 291 291 291 291 290 290 289 288 288 287 287 287 287 286 285 285 285 286 286 288 289 288 285 284 284 286 287 285 285 285 284 285 286 283 282 282 282 281 281 281 281 281 281 281 281 281 281 281 282 282 282 283 283 284 285
299 301 301 301 301 300 299 299 299 299 300 298 297 297 296 295 292 290 290 290 290 289 288 289 289 290 289 289 289 289 289 289 289 289 288 288 287 287 286 286 286 286 286 285 285 286 283 284 286 285 283 284 282 282 283 286 286 283 283 283 285 285 284 283 282 282 281 281 281 281 280 280 281 280 280 280 280 281 281 281 282 282 283 283 283
299 299 301 301 301 300 300 299 299 299 300 298 297 293 292 292 291 290 289 287 288 289 288 288 288 287 287 287 288 288 288 287 287 287 287 286 286 286 285 285 285 286 284 283 283 283 282 282 284 285 283 282 282 283 282 283 284 283 283 285 282 283 286 280 281 281 280 280 280 280 280 279 279 280 280 280 279 279 281 281 281 282 282 282 282
299 299 300 300 300 300 300 299 299 298 297 295 293 292 291 290 289 289 288 289 287 288 288 288 288 287 286 286 285 285 285 285 285 285 285 285 285 285 284 284 284 283 283 283 282 282 282 282 282 283 284 281 279 282 283 282 282 285 286 283 281 282 283 278 277 281 278 278 279 279 280 279 279 280 279 279 279 279 280 280 280 281 281 281 281
299 299 299 300 300 299 299 299 297 296 295 293 291 291 290 289 288 288 288 287 288 287 287 286 287 286 285 283 283 283 284 284 284 284 285 284 284 284 284 283 283 283 283 283 282 282 281 281 281 281 281 282 280 279 282 282 281 282 284 277 277 278 277 276 275 279 277 276 278 278 281 278 278 279 278 278 278 279 280 280 280 280 280 280 280
299 299 299 300 299 298 297 296 295 294 293 292 291 291 290 289 288 287 286 286 285 286 286 285 284 285 283 282 283 283 283 283 283 283 284 284 283 283 283 283 283 283 283 283 282 282 282 282 282 281 281 281 282 280 279 281 281 281 280 278 278 277 276 276 274 277 275 276 276 277 277 277 276 277 278 278 278 278 280 279 279 280 280 279 279
299 298 297 297 298 296 295 295 294 293 292 291 291 291 290 290 290 290 288 287 286 286 285 285 284 283 283 282 282 282 282 283 282 283 283 283 283 283 283 283 283 283 283 283 282 282 282 282 283 282 282 284 281 280 280 280 280 280 280 279 279 277 275 275 275 275 274 275 276 276 275 276 276 276 277 277 277 278 278 279 279 279 279 279 279
299 297 296 295 296 294 294 294 293 292 291 291 291 291 290 290 289 288 288 287 286 285 285 284 283 283 282 282 282 282 282 282 283 282 282 283 283 283 283 283 283 282 283 282 282 282 283 283 282 281 281 281 280 281 279 277 279 279 280 278 278 278 277 277 274 276 276 273 274 275 275 275 276 275 276 276 277 277 277 277 279 278 278 278 278
299 297 295 294 294 294 293 293 292 291 291 290 290 290 290 290 289 287 285 285 284 284 285 285 283 282 281 281 281 281 281 281 282 282 282 283 283 282 282 282 282 282 283 282 282 282 281 281 281 281 280 280 280 279 279 278 279 278 277 277 277 276 276 276 275 275 275 272 272 273 273 275 274 275 275 276 276 277 277 277 279 278 279 277 277
298 297 294 293 293 293 292 291 291 291 291 290 290 289 289 289 288 287 285 284 284 284 283 282 281 281 281 281 281 281 281 281 281 281 282 282 282 282 282 282 282 282 282 281 281 281 281 280 280 280 280 279 279 279 278 277 278 277 277 277 276 276 275 275 275 273 274 273 274 273 273 273 273 274 275 276 276 276 276 276 276 276 276 276 276
296 295 293 292 292 292 291 291 291 291 290 290 289 288 288 288 287 286 285 284 284 283 281 280 280 280 281 280 281 281 280 281 281 281 281 281 282 282 282 282 282 283 282 281 280 280 280 280 279 279 279 279 279 279 280 278 278 277 277 276 276 275 275 275 274 275 273 272 272 273 273 274 273 273 274 276 278 275 275 275 276 276 275 276 276
Wind_Speed
3 4 5 14 14 9 8 6 9 11 11 12 13 13 13 13 14 14 14 14 14 14 14 14 14 13 13 14 14 15 16 15 16 16 16 17 17 18 17 16 16 16 16 16 15 15 15 14 15 14 14 15 15 15 15 15 15 15 15 15 15 16 16 16 17 18 17 18 18 19 18 18 18 19 20 20 20 20 19 19 16 11 9 14 21
6 3 4 5 8 7 8 4 7 10 11 11 12 13 13 13 13 13 14 14 14 14 14 14 14 14 14 14 15 14 15 15 15 15 17 17 17 17 16 16 16 16 16 15 15 15 15 15 15 16 15 15 14 15 15 15 15 14 14 15 16 15 15 16 17 17 17 17 17 17 18 19 19 18 19 20 20 20 18 18 18 11 8 17 19
5 4 3 7 7 7 7 7 4 9 10 11 12 12 12 12 12 12 12 13 14 14 14 13 13 14 14 14 14 14 14 15 16 16 16 16 15 15 15 15 15 15 16 16 16 16 16 16 16 16 16 15 15 15 15 15 14 14 14 15 16 15 16 16 16 16 16 16 15 15 16 17 18 18 19 20 20 19 18 17 18 15 11 19 17
7 4 5 6 9 6 6 8 8 8 10 10 11 11 11 12 13 13 12 13 15 14 13 13 13 13 13 14 14 14 15 15 15 15 16 15 14 14 14 14 15 15 16 16 16 16 16 16 16 16 16 16 15 15 15 15 15 14 15 14 16 16 17 17 16 16 16 15 15 13 7 7 10 18 18 19 18 18 17 17 17 18 18 16 17
7 5 5 5 7 8 13 10 10 9 10 10 10 11 11 12 13 13 13 14 15 14 14 13 12 12 13 14 14 14 14 14 15 15 14 14 14 14 15 15 15 16 16 16 16 16 16 16 16 16 16 16 15 15 15 15 15 15 15 15 17 17 18 17 16 16 15 15 14 11 6 6 6 18 18 19 18 17 17 17 17 17 17 17 16
5 5 4 5 5 6 9 10 10 10 10 10 10 10 11 12 12 12 13 14 14 14 14 13 12 12 13 13 14 14 14 14 14 14 14 14 15 15 15 16 16 16 16 16 16 16 16 16 16 17 16 16 15 15 16 16 17 17 17 17 18 19 18 17 17 15 14 14 13 7 7 6 6 9 20 18 18 17 17 17 18 17 18 18 17
7 5 4 6 4 4 8 10 12 11 12 11 10 10 11 11 11 11 12 13 14 13 13 13 12 12 12 12 13 14 13 14 14 14 14 15 16 16 15 16 16 16 16 16 16 16 16 16 16 16 16 16 16 16 16 17 19 18 18 18 18 19 19 17 16 15 15 8 6 6 6 7 6 6 19 17 17 18 17 17 17 17 17 17 18
3 5 4 5 5 5 7 8 10 12 12 11 11 10 10 10 11 11 11 11 12 13 13 13 13 13 13 13 13 13 13 13 13 14 15 15 16 16 15 15 16 16 15 15 15 16 16 16 16 16 16 15 16 16 16 18 18 19 19 19 19 18 17 16 15 14 14 7 6 6 6 7 7 6 17 17 17 17 17 17 17 17 17 18 16
5 5 5 4 3 7 7 8 9 11 11 11 10 10 11 10 10 10 11 11 11 12 12 12 13 13 13 12 12 12 13 13 14 15 15 16 15 15 14 15 15 15 15 15 15 15 16 16 16 15 15 15 15 16 16 18 17 19 20 19 17 16 16 15 13 12 7 6 6 6 7 6 6 7 15 17 17 17 17 14 11 16 17 17 16
4 4 4 4 4 7 7 6 9 10 11 10 9 9 11 10 10 10 11 11 11 11 12 12 12 13 13 12 12 12 13 13 14 14 14 15 15 14 14 14 14 14 15 15 14 15 15 15 15 15 15 15 16 15 17 17 17 19 19 18 17 16 15 14 13 9 7 6 7 7 8 11 5 7 14 17 18 18 16 14 13 14 13 16 18
3 4 4 4 4 8 9 7 6 8 10 9 9 9 9 10 10 10 10 11 11 11 11 11 12 12 13 12 12 12 12 12 13 13 14 14 14 13 14 14 14 14 14 14 14 14 15 15 15 15 15 16 15 15 16 17 17 17 18 17 16 16 14 13 10 7 7 7 7 6 6 11 7 7 15 17 17 17 16 15 15 17 18 19 19
4 3 3 3 5 8 9 7 7 8 8 8 9 10 9 9 9 9 10 10 10 11 11 12 11 11 12 12 12 12 12 11 12 13 13 14 13 13 13 13 13 13 13 13 13 13 14 15 15 15 15 15 15 16 17 16 17 17 17 16 16 15 14 13 8 7 7 7 7 7 7 6 7 11 18 16 15 16 17 17 17 17 18 19 19
3 2 2 2 3 6 7 8 7 7 8 9 9 9 9 8 8 9 9 9 10 10 11 11 11 11 11 12 12 12 12 12 11 12 13 14 13 13 13 13 13 12 12 12 12 13 14 14 15 15 15 15 16 17 17 16 16 17 16 16 15 14 13 12 7 7 7 7 7 7 7 6 7 16 16 16 15 16 16 17 17 17 17 17 18
3 3 2 1 2 4 6 6 6 6 7 7 8 10 9 8 8 8 9 8 9 9 10 10 10 10 11 11 12 12 11 11 12 12 13 13 13 13 12 12 12 11 11 11 12 12 13 14 14 15 15 15 16 16 16 16 16 16 15 15 14 13 11 8 7 6 7 7 7 7 6 6 7 16 16 16 16 15 15 16 16 15 16 16 17
4 3 2 2 3 2 4 5 5 4 6 6 7 7 8 7 7 8 8 8 9 10 9 10 10 10 10 11 12 12 11 11 11 11 12 12 13 12 12 11 10 11 11 11 11 12 13 13 14 14 14 14 15 16 16 15 15 15 14 14 13 12 10 6 6 5 6 6 5 6 6 4 14 17 16 17 16 15 15 16 16 15 15 15 15
6 5 5 4 2 2 3 4 5 5 5 5 7 6 6 6 7 7 8 8 9 9 9 10 10 10 10 10 11 11 11 11 11 11 12 11 12 12 12 11 11 11 11 12 12 12 13 14 14 14 14 15 15 16 16 15 15 15 15 14 14 14 12 7 6 6 6 6 6 5 5 3 14 15 15 16 15 15 15 16 16 14 14 15 14
7 5 6 5 6 4 2 2 2 7 6 5 7 7 5 4 4 5 5 6 7 7 9 9 10 10 10 10 10 9 9 10 10 10 11 11 12 11 11 11 11 11 12 12 13 13 14 15 15 15 16 16 17 17 17 17 16 16 16 15 15 14 12 9 7 6 6 7 6 6 6 5 10 14 15 15 15 15 15 14 14 13 14 14 14
6 8 9 8 7 7 7 2 1 4 3 3 5 8 4 6 5 3 3 5 6 7 7 9 8 8 8 8 8 8 8 8 8 8 9 11 10 9 10 11 11 11 12 12 13 14 14 15 15 16 16 16 17 17 17 17 16 16 15 15 15 15 13 11 7 7 7 8 8 7 7 10 13 15 16 15 15 15 15 15 15 14 14 13 12
7 8 6 9 7 5 6 3 4 4 3 3 1 6 8 7 7 4 3 6 6 7 8 8 7 7 8 9 8 7 7 7 7 8 9 9 9 9 9 10 11 11 11 12 13 14 14 15 15 15 15 16 16 17 17 16 15 15 14 13 13 11 13 9 8 8 8 8 7 8 8 15 13 15 15 15 15 15 14 14 13 14 15 13 13
5 6 6 4 3 4 5 4 5 5 1 3 3 3 5 7 5 2 3 5 6 7 8 7 8 7 7 8 8 6 6 5 8 7 9 9 9 7 9 8 11 11 10 10 12 12 13 14 15 14 14 15 16 15 15 16 15 14 13 13 11 11 9 7 8 9 8 8 7 7 13 16 16 15 15 16 18 18 18 17 16 15 12 14 14
4 5 4 4 3 4 5 4 4 4 3 2 3 3 4 7 5 5 3 5 7 8 8 8 8 7 6 7 7 4 4 4 5 4 7 6 9 9 8 8 9 10 9 9 10 10 12 13 14 14 14 14 13 14 14 14 14 13 12 11 10 8 7 7 8 8 7 7 8 7 16 17 18 19 18 18 19 19 19 20 19 19 16 14 15
2 3 4 4 4 3 4 4 3 6 4 2 2 2 3 4 4 4 3 2 4 7 6 5 5 5 6 5 4 3 3 3 4 4 4 6 7 10 8 7 8 7 8 9 9 10 11 12 13 14 13 12 11 7 7 11 12 12 10 10 8 6 7 7 8 8 8 7 7 10 17 18 19 19 19 21 19 18 19 21 22 21 21 20 18
1 3 3 5 4 3 3 5 4 4 5 5 3 1 3 4 3 4 3 4 3 4 5 5 3 4 3 4 4 3 2 3 4 5 5 7 7 9 9 8 7 7 7 7 9 11 12 12 13 12 11 11 7 6 6 6 7 10 9 8 7 7 7 8 8 8 8 7 7 15 17 19 19 19 19 19 19 20 20 20 20 20 21 22 22
0 1 3 3 3 3 4 2 3 4 4 3 4 2 3 4 3 2 2 3 4 3 4 4 4 5 4 3 3 3 3 3 6 9 7 5 5 7 9 8 7 8 8 5 8 10 12 12 11 10 8 5 6 6 6 6 6 6 6 7 7 7 8 7 7 7 7 8 9 15 18 20 20 19 19 19 19 19 19 19 19 19 19 20 21
1 2 2 3 3 3 4 5 2 1 2 2 3 3 4 3 4 3 3 3 3 4 3 4 4 5 5 4 4 4 3 2 3 5 5 5 5 4 5 4 4 3 5 4 4 5 6 6 5 6 6 6 6 6 5 6 6 6 6 7 7 7 8 8 7 7 7 7 10 17 17 19 20 20 20 20 20 20 20 20 20 20 20 19 20
1 0 2 3 3 3 3 4 5 2 1 2 3 3 4 3 5 4 4 4 4 4 3 3 4 4 4 5 5 5 4 3 4 2 5 5 5 4 3 4 4 3 3 4 4 4 5 6 5 5 5 6 6 5 5 5 6 6 6 7 8 8 8 8 8 8 7 8 11 18 18 19 21 22 22 22 22 21 21 21 21 21 20 20 20
1 1 2 3 3 3 3 3 4 2 3 2 2 2 2 3 3 4 6 5 4 5 4 4 4 4 5 5 5 4 4 4 5 4 5 4 5 4 3 3 4 4 3 4 5 4 5 6 5 5 5 6 6 6 6 5 5 7 7 8 8 8 8 8 8 8 8 9 11 20 19 22 24 23 23 22 22 22 22 23 23 22 21 21 21
0 1 2 3 3 4 3 3 3 2 2 2 3 4 4 5 6 6 5 4 5 5 5 4 3 4 5 3 4 5 5 5 4 5 5 4 5 5 4 4 5 5 4 4 5 5 5 5 6 5 6 5 7 6 6 6 6 6 8 8 8 8 8 8 8 8 8 8 10 17 19 21 22 22 23 23 23 22 22 22 22 23 23 22 22
0 2 2 2 2 3 3 3 2 4 3 3 5 5 4 5 6 2 7 3 4 5 4 4 5 3 5 4 4 6 4 5 5 5 5 5 4 4 4 5 5 4 5 5 4 5 6 5 6 5 5 5 6 6 6 6 6 6 8 8 8 9 8 8 8 8 8 8 9 15 21 22 22 22 23 23 23 23 22 22 21 21 22 23 23
2 2 2 3 2 3 3 2 3 4 4 4 5 5 4 7 6 3 5 7 3 7 5 4 4 4 5 4 4 5 5 5 6 5 6 5 6 5 6 5 5 4 5 5 4 5 6 6 6 6 6 5 6 5 6 6 6 6 8 9 8 8 8 8 8 8 7 8 8 12 21 21 23 23 23 23 24 23 23 23 23 22 22 21 22
1 2 2 2 3 2 1 0 2 4 5 5 5 6 6 5 5 3 4 6 3 5 6 6 5 4 5 5 5 5 5 4 6 6 5 6 6 6 6 5 5 5 5 5 5 5 6 6 5 5 6 6 6 5 5 7 6 9 7 9 8 8 8 7 8 8 8 7 7 9 12 21 22 23 23 24 24 24 24 24 24 23 23 22 22
3 3 2 2 1 1 1 1 3 6 7 6 6 7 7 5 5 4 4 5 3 5 5 6 5 5 4 5 5 5 5 5 6 6 6 6 6 6 5 6 6 5 5 5 6 6 6 6 6 5 6 5 6 5 4 7 7 8 8 9 8 9 8 8 8 9 8 8 8 8 9 10 18 22 23 24 24 24 24 24 24 24 24 23 23
3 2 2 1 1 1 1 2 4 6 7 6 7 5 7 2 6 4 4 4 6 5 6 5 6 5 4 5 5 6 5 6 6 7 7 6 6 7 6 6 5 5 6 6 7 5 6 6 7 5 6 6 6 6 6 8 9 7 8 8 8 9 8 8 8 8 8 8 8 8 8 9 9 14 20 22 23 24 24 24 24 24 24 24 24
3 2 2 2 0 0 1 3 5 6 7 7 7 6 8 4 5 5 3 5 5 6 5 5 6 5 5 6 6 6 6 5 7 7 6 7 6 7 7 6 5 5 6 5 6 5 6 7 6 7 6 6 7 6 7 8 7 7 8 7 9 8 8 9 9 8 7 7 7 8 8 8 9 8 9 17 22 22 23 24 24 24 24 24 24
4 3 3 3 1 1 2 4 5 6 6 7 7 8 9 5 4 5 5 6 4 6 6 5 6 4 4 5 6 6 6 6 6 8 7 6 6 7 6 5 5 5 6 5 6 5 6 6 4 8 6 6 7 7 7 8 8 9 8 7 8 8 9 9 8 7 7 6 8 8 8 8 8 8 8 8 12 19 22 23 23 24 24 24 24
5 4 3 2 3 2 2 5 5 6 7 5 8 7 7 6 6 5 3 6 7 6 5 6 5 4 5 6 6 6 7 6 6 7 8 5 6 7 6 6 6 6 6 5 5 6 6 6 5 4 9 7 9 8 7 9 8 9 7 7 7 8 8 7 7 7 6 7 8 8 8 8 9 8 8 8 8 11 20 21 22 23 24 24 24
4 4 4 3 3 4 4 5 7 4 8 5 7 7 7 7 6 5 3 7 6 3 5 7 6 5 6 6 5 6 7 7 7 6 8 7 7 7 6 6 6 7 7 6 7 4 5 8 7 6 6 8 10 9 8 8 9 8 8 8 7 8 8 7 6 5 5 9 8 8 8 8 8 9 8 8 8 8 13 20 20 22 22 23 23
3 5 5 5 5 4 4 5 7 5 6 6 6 6 6 8 6 4 6 6 6 2 7 7 5 4 5 6 6 6 7 7 8 7 8 7 6 7 6 6 7 7 7 6 6 5 6 7 8 6 5 8 8 9 9 8 8 8 8 8 7 8 7 7 6 6 8 8 8 8 7 7 8 8 8 8 8 8 8 13 18 19 21 22 23
3 5 5 5 5 5 4 5 6 5 7 7 8 7 7 7 6 7 6 7 5 5 5 6 5 4 6 6 6 6 7 7 8 7 9 7 7 7 7 6 6 6 7 8 7 6 7 6 10 8 8 7 7 7 8 8 9 8 8 7 7 7 6 6 6 8 7 7 7 6 6 8 7 8 8 8 7 8 9 8 8 8 11 22 22
3 5 5 5 6 6 5 5 5 4 6 7 6 6 5 5 6 5 7 5 5 5 6 5 4 4 5 6 6 6 6 6 7 7 8 7 7 7 7 5 4 6 8 8 6 6 7 9 8 10 10 8 7 6 6 10 9 9 8 7 7 6 7 7 8 8 7 7 6 6 8 6 8 7 7 7 7 7 8 8 8 8 8 13 21
4 6 7 6 6 7 7 7 6 5 6 6 5 6 8 6 5 5 7 5 5 6 6 4 5 5 6 6 6 6 6 6 5 6 8 8 7 7 7 5 5 7 8 7 5 5 4 5 7 6 8 10 6 5 3 3 11 7 6 6 7 5 6 7 8 7 7 5 6 7 6 8 7 8 6 6 7 8 7 8 7 7 8 7 10
6 6 8 8 8 7 7 8 8 6 4 4 6 5 3 2 6 7 7 6 5 6 7 6 6 5 6 6 5 5 6 6 5 6 7 7 8 7 6 6 6 7 7 5 5 4 4 5 6 8 5 6 4 3 4 1 3 5 7 3 3 3 4 7 8 7 6 6 6 7 6 7 8 6 6 7 8 8 8 8 7 8 8 8 8
7 8 7 8 8 8 7 8 8 8 6 5 4 4 4 5 5 6 7 8 5 5 5 5 5 6 6 5 5 5 6 6 5 5 7 6 7 8 7 6 5 6 8 7 5 6 5 5 5 9 7 3 4 4 5 2 4 3 2 5 1 1 1 4 2 5 6 5 5 7 6 6 6 5 5 6 6 7 7 7 8 8 8 9 8
7 7 8 10 8 7 8 8 8 6 6 5 6 6 7 8 8 6 5 4 7 5 6 6 6 7 7 5 5 4 5 6 5 6 6 6 7 8 6 6 6 4 6 8 6 6 5 5 6 5 7 6 3 6 6 4 3 6 3 0 1 2 1 1 2 2 3 3 6 6 6 6 6 6 6 8 7 6 6 6 8 7 8 8 8
9 8 9 9 7 8 8 9 7 7 6 7 8 8 10 8 8 9 8 10 7 6 7 6 5 4 5 5 4 4 5 6 6 6 7 7 6 6 7 6 7 5 5 8 7 5 4 4 3 4 3 8 4 2 6 6 6 3 5 3 1 1 1 1 1 0 4 3 5 5 6 7 7 6 6 6 6 6 6 7 7 7 8 8 8
10 9 8 8 8 8 8 8 7 7 8 8 10 9 9 12 11 10 7 5 7 6 7 9 7 6 5 3 5 4 5 6 5 6 6 6 7 6 6 7 7 6 6 7 5 5 5 6 3 4 6 3 9 5 3 4 6 8 6 2 1 2 4 2 2 0 2 0 3 3 5 6 4 5 5 6 7 6 6 6 6 7 7 7 8
10 7 6 7 9 8 9 9 8 7 8 11 11 8 9 8 11 13 12 11 10 2 3 3 6 5 5 5 5 4 4 7 5 5 6 5 6 6 7 7 7 6 5 6 6 6 5 5 4 7 5 4 5 6 6 3 4 7 6 5 8 5 3 3 1 1 2 2 4 4 4 5 4 4 5 4 5 5 5 5 6 6 6 6 6
9 8 7 7 10 10 9 10 8 8 8 10 10 9 10 8 6 7 8 9 10 10 7 6 3 4 7 5 5 5 5 4 7 5 5 5 7 7 7 8 7 5 5 6 7 5 6 5 5 5 5 5 5 8 5 1 6 2 4 7 7 7 7 7 4 3 3 1 1 4 2 4 5 3 3 5 5 5 5 5 5 5 5 5 5
9 10 9 7 8 9 9 8 9 9 9 11 11 8 6 9 10 9 7 3 6 9 7 5 6 4 8 5 5 5 5 4 5 6 4 5 6 8 7 7 7 6 6 6 6 6 6 6 6 6 6 6 5 3 6 5 6 6 5 4 6 6 6 5 3 4 3 1 1 1 4 5 1 0 2 2 4 4 4 3 4 4 5 5 5
8 7 6 7 8 8 9 10 10 8 10 10 8 7 7 8 10 10 13 9 6 6 8 9 6 5 7 6 5 6 6 6 5 4 6 5 7 7 7 7 7 6 6 7 6 7 6 7 5 6 6 8 5 5 6 4 4 1 2 5 4 2 4 4 4 4 3 2 2 2 1 3 6 5 2 5 4 3 4 3 4 4 4 5 5
7 8 9 9 9 9 10 11 10 8 10 11 9 9 8 8 9 11 13 14 10 10 10 8 7 6 8 7 6 6 5 6 6 5 5 6 7 6 6 6 6 6 7 6 6 7 6 7 6 7 7 8 6 7 6 4 4 4 4 4 5 4 3 3 2 2 3 1 2 2 3 2 2 5 4 5 4 3 3 3 3 3 3 4 4
Wind_Direction
179 163 140 152 169 171 159 154 137 119 115 110 106 103 100 100 99 98 96 90 88 83 81 83 85 82 81 82 82 81 83 82 81 80 77 73 69 66 63 59 54 51 49 48 49 50 50 49 50 50 52 52 51 50 47 46 48 48 49 49 49 57 59 57 56 53 49 46 47 46 47 56 57 58 57 53 51 49 46 42 38 29 30 33 35
178 188 130 133 147 146 139 150 130 120 117 113 107 106 104 104 104 101 102 100 91 85 82 80 79 84 85 82 84 85 83 85 86 81 74 70 68 67 62 58 54 50 48 47 48 49 49 49 48 49 49 49 49 48 47 47 48 49 50 50 56 64 66 65 60 56 51 48 47 46 44 48 53 58 59 54 51 48 45 42 38 32 25 32 33
143 147 132 139 151 154 157 138 125 118 126 118 112 108 110 107 105 103 101 100 96 91 85 81 78 79 80 81 86 85 84 84 85 84 79 73 70 69 63 59 54 50 49 48 48 50 50 49 49 48 48 48 47 47 48 49 50 51 51 50 62 70 71 66 60 57 54 51 50 49 45 46 51 53 55 57 51 47 42 40 39 36 31 33 32
142 154 128 154 154 160 132 153 156 138 126 120 118 117 116 114 109 108 107 104 99 94 91 86 84 85 83 83 82 83 85 86 85 83 83 82 79 73 67 59 54 51 50 50 50 51 52 51 50 50 49 48 48 49 50 51 53 52 50 54 68 72 69 62 58 55 54 50 52 52 44 37 42 56 55 53 50 45 42 40 41 41 38 36 35
146 149 140 152 154 168 168 166 149 143 130 126 123 120 116 113 114 115 113 105 102 102 98 94 93 92 89 87 83 80 83 85 87 89 85 84 81 74 66 60 56 53 51 50 50 52 53 54 54 53 52 51 51 52 53 52 52 53 56 63 74 73 67 60 58 55 51 50 47 47 36 34 36 54 54 54 51 46 43 42 41 42 40 38 35
143 144 145 154 158 174 161 151 144 141 135 130 126 122 117 114 117 117 112 109 109 109 105 101 97 92 91 86 84 82 81 82 85 89 89 84 78 70 63 59 56 54 52 51 51 53 54 55 55 55 55 55 56 56 55 53 55 59 62 73 79 75 68 63 60 55 52 50 48 39 33 29 37 49 54 53 50 47 45 44 42 39 38 37 34
143 145 148 157 150 163 164 151 149 148 140 134 127 124 122 121 119 116 115 116 113 110 108 106 103 97 92 90 90 87 85 85 87 88 87 82 74 66 60 58 57 55 54 53 54 55 56 56 57 57 58 59 61 60 58 59 60 66 71 81 81 75 71 66 63 60 57 48 43 39 34 33 34 50 52 51 50 47 45 44 43 40 39 38 35
129 145 154 144 153 163 158 154 153 147 140 136 135 132 128 126 123 121 120 120 118 111 110 109 105 104 99 94 88 88 88 86 87 86 81 79 73 66 61 58 57 55 55 56 58 58 59 59 60 61 62 64 66 64 64 63 62 75 81 80 78 74 68 64 60 58 55 48 44 41 37 32 35 45 51 50 51 49 46 42 42 41 41 40 38
152 152 146 145 150 155 147 147 155 146 141 138 138 135 133 130 126 124 122 119 117 114 111 107 106 104 100 99 99 95 90 87 86 86 85 78 74 69 64 59 56 55 56 58 60 62 62 62 63 66 67 67 67 65 64 66 69 81 84 83 78 73 70 64 57 48 38 40 35 42 45 36 40 47 50 52 50 49 47 43 38 40 41 41 40
158 146 147 148 151 146 146 156 150 151 141 142 140 141 136 134 132 131 127 124 121 119 115 112 109 105 102 102 101 99 96 93 93 90 87 83 79 75 70 63 58 55 56 59 62 64 66 66 67 69 73 72 69 65 67 68 75 82 81 78 76 72 67 62 55 47 44 37 36 26 46 53 37 49 50 49 51 49 48 41 45 42 38 40 38
154 154 145 151 158 157 159 156 149 152 145 143 147 143 140 136 137 134 131 131 129 126 121 115 111 108 107 107 106 105 101 99 99 96 93 90 86 80 73 68 63 59 57 61 65 66 68 69 70 71 73 73 62 60 62 70 74 76 76 75 72 69 66 62 57 49 45 41 37 32 23 41 47 52 51 50 50 49 51 44 42 46 40 39 38
157 147 146 147 166 168 162 149 149 145 144 147 152 145 143 143 142 138 135 135 134 130 126 121 116 114 112 111 110 110 107 104 104 100 95 92 87 82 77 73 68 64 63 64 69 71 71 72 72 73 76 72 62 61 64 70 73 74 73 71 69 66 61 58 57 50 45 40 37 31 33 33 45 50 51 51 50 48 48 49 42 44 43 40 41
139 135 122 132 154 185 161 154 149 151 153 158 152 149 144 146 146 141 137 138 136 132 128 126 121 119 115 111 112 113 112 110 107 106 102 96 92 86 82 78 73 69 67 67 71 74 75 76 76 76 75 68 65 64 66 70 71 72 71 68 66 64 60 53 52 50 44 39 36 30 33 35 41 48 49 51 48 46 47 48 47 42 44 41 40
125 113 100 102 147 181 156 153 154 159 156 158 161 151 147 142 153 145 143 145 135 134 135 128 126 123 118 115 115 115 116 115 115 112 108 104 98 93 88 84 80 76 74 74 76 77 78 79 81 81 77 72 69 69 71 72 72 71 69 67 64 61 58 53 49 47 44 37 32 30 29 35 48 49 47 47 47 43 43 48 48 41 44 43 40
77 59 106 96 149 153 152 150 163 164 156 157 158 141 143 149 155 147 150 147 139 139 139 131 127 123 120 120 120 122 122 122 121 117 113 110 105 100 96 93 90 86 79 78 79 81 80 80 82 82 79 76 73 73 75 76 74 71 69 67 63 61 62 64 54 50 45 39 31 28 21 27 54 53 51 48 49 44 41 46 45 39 40 44 34
53 54 54 47 55 118 137 154 160 150 155 156 143 141 148 159 158 150 157 152 143 142 139 133 127 127 126 126 125 128 130 129 127 122 119 116 111 107 102 96 92 83 77 75 76 77 75 74 75 74 72 70 68 67 67 68 66 63 59 56 52 48 45 48 48 38 35 32 28 26 7 358 60 58 57 55 54 53 44 41 43 39 35 40 34
34 40 56 42 39 21 38 108 137 156 163 156 145 142 154 143 154 140 148 152 142 135 139 136 133 132 134 133 133 133 133 133 132 128 124 118 110 104 101 95 90 81 74 71 71 71 72 72 70 68 65 63 62 62 61 61 59 57 55 53 51 49 43 42 45 31 28 26 24 13 1 329 50 58 59 54 50 54 52 48 45 38 35 37 36
35 40 33 32 30 12 12 20 279 141 131 137 150 141 133 100 62 8 147 146 144 141 139 135 140 136 136 131 127 130 135 134 129 120 118 115 104 99 98 96 89 83 75 70 68 69 71 73 71 69 66 63 63 62 61 62 62 60 57 53 49 47 44 45 43 30 28 26 18 8 1 1 42 47 52 56 49 46 49 46 47 42 38 41 37
40 38 33 30 10 10 10 328 356 89 134 138 127 125 156 140 170 209 183 155 145 142 137 142 141 140 136 132 129 125 121 116 108 94 103 108 106 102 99 96 91 86 79 73 67 66 70 72 72 69 66 66 67 67 65 64 64 62 58 54 48 44 45 46 42 36 31 26 15 13 3 12 47 45 44 48 48 47 48 46 45 40 41 37 30
47 23 32 32 7 22 358 355 13 6 170 134 124 156 161 149 135 137 132 141 139 136 124 126 126 126 121 116 109 104 102 101 110 107 111 115 108 105 100 93 97 94 88 79 73 69 69 69 68 67 66 66 64 63 65 65 64 61 57 53 47 45 45 43 43 41 33 25 21 12 22 26 36 42 42 39 34 35 36 34 30 29 34 35 35
30 20 17 9 348 15 338 24 353 354 331 142 139 147 162 157 154 194 161 133 141 127 122 123 123 108 99 93 94 95 95 101 100 98 101 117 117 109 105 104 103 102 95 87 81 75 71 68 64 63 62 59 54 54 58 64 64 63 60 55 52 50 45 47 44 42 37 25 21 22 35 36 40 41 39 33 32 32 31 31 34 30 27 30 22
0 349 6 356 356 16 324 18 340 356 335 356 75 147 128 157 163 173 164 135 114 122 124 109 98 88 91 99 90 91 118 103 99 110 96 118 122 120 113 109 103 99 98 94 88 79 71 65 66 66 62 57 54 55 55 58 59 62 59 59 57 54 48 50 47 41 37 25 19 30 42 43 44 46 45 41 38 37 36 34 34 38 37 35 29
12 353 344 357 352 329 337 7 334 335 341 16 13 275 153 149 161 168 140 115 113 129 120 110 107 117 127 113 105 111 103 121 108 131 121 135 136 127 118 115 113 103 96 92 92 85 78 76 78 76 64 58 57 56 59 63 59 56 58 57 57 51 50 47 48 42 35 30 25 28 44 46 47 47 46 44 42 39 38 35 33 31 35 35 36
282 291 299 315 348 345 328 315 319 322 20 356 335 262 186 161 159 144 122 116 142 130 136 134 137 139 136 121 116 121 142 151 149 128 126 123 122 123 118 116 99 84 80 62 64 78 81 78 73 75 66 59 59 56 59 60 65 63 60 59 58 52 52 49 49 44 36 28 30 25 45 47 47 47 48 46 44 41 39 38 34 32 30 28 28
248 301 329 326 325 330 329 307 303 333 18 314 285 256 181 163 135 136 138 135 135 132 138 139 145 136 146 150 154 145 153 144 120 140 138 134 123 135 125 106 96 87 97 79 73 73 82 78 65 68 78 72 64 48 52 61 60 65 65 61 62 58 57 53 54 50 39 33 35 36 43 50 50 49 49 48 46 42 39 39 38 37 35 33 32
300 2 324 320 313 313 304 297 302 314 283 271 269 244 184 154 139 140 132 112 109 90 82 92 107 124 132 125 131 138 144 137 120 171 132 126 107 134 118 119 103 82 66 89 72 83 92 91 81 75 74 77 74 63 46 57 66 61 63 63 64 63 62 59 56 54 43 39 39 42 42 47 53 50 48 47 45 42 39 37 37 36 35 34 34
339 304 302 304 297 307 309 304 293 313 273 253 234 152 116 122 108 108 118 103 101 111 91 95 114 140 115 129 129 128 126 122 120 114 99 121 126 115 100 90 93 77 62 94 83 88 97 91 85 82 80 79 75 67 58 53 58 68 65 67 67 66 63 60 56 53 47 44 40 40 45 49 50 50 49 47 44 42 39 38 36 35 33 32 30
114 294 311 294 304 311 308 312 286 243 224 194 131 87 92 90 102 100 77 116 121 102 106 100 104 80 108 106 118 116 120 109 103 102 105 100 104 110 101 85 88 84 77 75 98 91 86 86 89 82 79 72 75 67 64 56 56 66 74 69 70 68 66 64 62 56 51 48 44 41 43 47 48 47 47 45 44 42 39 37 35 34 33 32 32
254 281 285 312 293 307 318 306 251 215 153 165 105 97 94 90 78 45 109 48 95 92 91 106 87 103 94 100 110 110 99 107 105 103 100 95 89 87 91 85 82 90 95 78 86 98 87 83 85 86 89 81 77 72 68 62 63 67 82 78 75 74 71 67 64 60 54 53 49 42 43 44 45 44 43 42 41 40 39 37 35 34 33 32 32
231 289 311 288 322 307 308 284 217 167 129 120 102 103 96 92 80 44 93 93 51 107 92 83 87 98 98 102 104 113 119 123 113 103 103 96 90 81 76 74 79 71 74 83 70 82 91 86 83 90 87 78 78 67 72 76 64 74 79 86 76 79 77 72 66 62 61 52 51 47 41 43 41 40 40 39 39 38 37 36 34 33 32 31 31
236 256 282 305 288 299 304 155 138 118 106 104 100 97 92 80 84 54 76 93 101 101 97 78 63 71 98 105 101 95 104 100 103 103 95 95 90 90 87 85 75 62 70 73 60 71 75 79 77 77 86 80 72 60 68 76 71 79 73 81 82 78 73 68 66 62 59 52 50 50 39 39 40 38 36 36 36 36 35 34 33 32 31 30 30
219 222 259 278 305 321 343 71 115 109 108 101 99 97 87 76 83 87 74 85 111 93 98 96 78 56 53 93 98 96 98 95 101 103 104 101 96 90 86 86 82 71 68 75 76 69 78 76 71 69 72 80 78 67 55 81 75 78 79 79 79 77 70 66 64 59 57 53 48 47 43 37 36 37 35 33 33 33 33 33 32 31 31 29 29
239 213 232 234 229 314 80 87 108 109 111 110 98 99 96 62 90 56 92 119 87 75 79 87 91 62 54 64 81 91 88 104 97 100 101 97 98 98 85 79 80 84 83 76 80 79 80 81 72 67 66 65 77 66 67 73 79 77 79 77 79 73 70 66 63 58 54 51 50 46 45 40 37 33 32 31 30 31 32 32 31 30 30 29 28
199 233 209 191 300 323 55 94 94 102 103 103 114 119 99 68 93 88 52 64 84 86 77 76 81 72 69 66 79 82 88 90 106 94 91 94 91 90 93 82 76 75 76 76 79 70 77 73 74 78 68 71 62 66 81 81 77 76 77 76 76 73 69 68 62 57 53 53 50 49 43 41 37 35 28 28 28 29 31 31 31 29 29 29 28
179 220 198 167 141 63 92 95 101 102 100 107 117 111 107 102 80 86 70 72 74 89 76 66 69 72 73 71 68 79 78 82 88 104 89 95 95 89 78 74 74 74 75 62 81 76 78 74 58 93 81 78 72 63 77 80 82 77 73 76 77 79 71 66 60 56 51 51 52 48 44 41 36 35 30 28 23 23 28 29 30 28 26 27 27
188 195 169 166 119 92 79 115 103 107 98 103 102 97 103 110 86 71 73 87 83 55 71 69 64 65 70 77 66 75 81 82 86 95 98 87 95 91 84 84 81 82 77 75 73 77 85 79 48 80 101 76 87 71 69 81 75 75 69 68 71 73 74 65 59 55 47 54 50 47 44 41 38 36 33 30 27 20 24 27 29 27 26 27 27
184 181 164 153 122 105 113 118 109 107 109 83 86 97 99 92 83 86 83 80 59 45 63 62 74 71 32 57 68 78 82 85 85 86 101 101 97 95 89 87 83 86 83 75 71 59 86 90 58 36 85 107 94 93 79 82 82 76 72 70 61 70 67 63 57 55 52 54 49 47 44 41 40 37 35 31 27 23 19 26 27 26 24 27 28
196 175 167 162 147 135 118 117 114 103 119 104 91 102 95 89 82 79 79 68 62 6 68 56 63 47 53 54 75 83 86 89 90 95 96 95 96 100 94 84 85 84 82 79 75 64 65 84 86 48 58 97 98 101 95 87 85 81 71 67 64 67 65 63 60 55 53 50 47 46 43 44 41 37 35 33 30 25 24 22 25 27 24 28 29
196 169 165 150 135 132 121 113 116 112 115 101 105 93 81 74 80 89 66 64 50 42 52 65 54 56 45 73 81 83 90 92 100 105 105 104 97 92 91 78 84 93 89 80 70 68 74 73 97 87 63 61 92 93 103 98 86 79 73 61 64 64 65 64 60 56 51 49 48 43 45 39 40 36 34 32 27 29 27 24 25 26 21 27 30
191 168 163 151 143 135 135 124 120 107 105 117 121 108 94 95 103 89 65 57 53 56 51 52 43 50 60 71 81 86 88 96 100 102 103 103 100 93 90 75 79 93 89 83 76 76 95 95 84 102 97 76 57 67 88 99 83 76 74 63 55 62 61 62 59 54 51 45 42 41 44 35 40 34 34 28 32 31 30 28 29 26 27 25 28
199 180 163 163 155 153 148 144 139 124 131 137 136 134 130 115 80 87 102 85 79 77 64 51 50 47 41 44 70 73 85 90 91 102 104 100 95 96 93 80 80 84 87 91 96 87 74 95 98 70 100 101 57 17 19 70 107 75 59 63 54 34 58 62 60 52 48 41 39 49 36 39 32 32 23 26 32 31 32 31 30 30 29 27 22
200 185 173 170 163 160 155 147 144 150 152 146 140 133 110 124 140 134 121 107 106 101 100 68 61 70 69 73 78 80 84 85 87 94 96 105 106 97 92 95 92 92 92 94 83 78 82 87 112 79 25 88 71 359 333 60 55 130 127 96 52 33 53 55 56 43 41 34 38 48 38 41 32 22 18 29 29 28 28 27 30 32 31 29 25
187 186 176 165 166 165 161 154 151 154 155 144 118 107 97 86 109 128 127 107 59 57 85 96 89 83 68 62 68 80 93 89 89 91 99 95 100 102 99 100 90 103 100 82 82 75 70 77 83 118 104 60 94 32 17 30 142 122 108 99 156 72 301 9 14 38 24 30 28 44 41 42 33 21 17 34 32 26 29 27 32 32 30 29 25
185 187 179 172 167 171 163 157 154 143 132 107 98 82 81 86 77 84 67 77 123 102 83 86 85 86 71 61 55 70 81 90 85 93 95 92 100 104 106 92 80 70 103 105 89 80 74 74 88 90 119 99 48 36 17 16 108 139 134 31 182 120 135 14 345 312 347 12 34 33 37 33 21 17 22 28 19 27 28 32 36 35 34 31 29
189 189 179 175 169 171 164 157 146 137 122 115 114 117 113 97 97 84 85 92 81 99 97 65 65 74 86 63 55 63 81 88 87 91 101 101 97 103 102 97 93 81 91 91 85 92 86 86 83 90 67 128 106 105 24 21 47 9 143 110 53 53 186 198 83 251 357 359 8 23 32 32 20 16 20 15 18 26 25 31 33 35 33 32 29
192 191 180 169 163 167 155 145 135 134 135 129 135 139 145 137 135 124 119 112 121 139 140 143 141 125 115 113 68 64 86 89 87 93 97 104 100 101 104 103 96 85 81 93 104 90 68 72 47 103 88 54 127 116 87 29 59 46 50 90 142 170 169 217 103 131 322 235 311 55 37 25 25 17 15 21 18 15 25 29 35 36 34 33 30
192 175 175 170 161 160 156 153 149 144 143 146 153 152 152 160 154 148 147 152 141 90 46 56 116 115 109 101 97 75 73 99 89 93 99 103 106 104 102 95 91 89 90 96 86 78 70 58 44 72 74 104 108 101 117 148 77 41 37 63 66 56 102 119 128 96 37 318 10 344 336 360 4 25 21 21 19 20 17 34 37 41 38 35 31
173 168 171 168 163 161 157 158 153 152 156 154 161 169 159 159 136 129 143 150 151 142 130 110 93 120 111 107 102 87 78 85 104 97 105 111 112 101 96 95 94 90 95 89 96 94 87 65 69 74 68 52 79 117 130 359 104 32 11 48 52 51 50 66 86 140 147 149 305 323 289 340 351 22 17 18 17 21 21 26 42 42 44 32 27
174 175 173 168 157 155 157 153 156 157 161 164 161 173 175 158 146 139 125 87 117 130 121 120 126 134 113 106 104 102 95 83 94 107 104 105 100 105 101 100 101 101 101 97 90 88 91 97 82 72 77 62 60 84 102 108 111 145 120 63 65 69 59 62 63 66 120 122 276 221 306 327 5 349 12 7 6 18 32 41 57 51 40 31 23
168 163 154 153 158 157 161 160 161 165 164 165 167 166 165 153 146 151 138 133 126 123 133 136 140 147 124 126 123 118 117 105 94 99 100 95 100 99 102 107 112 111 102 104 103 93 89 86 87 94 90 83 55 70 94 95 86 82 97 151 112 79 57 47 44 69 49 92 142 285 297 2 349 308 357 9 3 8 28 58 72 55 41 37 24
162 160 162 166 163 164 163 166 165 163 168 166 165 166 164 160 157 155 147 141 147 146 140 143 147 151 141 144 139 132 126 119 114 94 97 103 97 100 110 112 109 109 107 105 104 104 101 98 96 87 80 93 93 92 84 70 84 75 60 89 120 136 159 141 156 88 117 92 42 326 319 262 226 305 302 337 341 348 62 62 79 57 49 30 30